SPI2052 EGCB-EGCB

Flight info

Callsign SPI2052
Flight time 0h 3m
Altitude 26000
Route 5329N00225W 5343N00245W 5400N00305W 5415N00315W DCT 5428N00320W 5435N00305W 5428N00250W DCT 5415N00240W DCT 5355N00235W
Aircraft PC12/L-SDFGRWY/S

Departure

Time 2026-05-04 17:13
Airport Manchester Barton Aerodrome (EGCB)

Arrival

Time 2026-05-04 17:16
Airport Manchester Barton Aerodrome (EGCB)
Time Latitude Longitude Altitude Speed Heading
2026-05-04 17:12 53.47212 -2.38622 76 ft 0 kts 263°
2026-05-04 17:12 53.47219 -2.38739 72 ft 41 kts 300°
2026-05-04 17:13 53.48703 -2.39686 1044 ft 192 kts
2026-05-04 17:14 53.51486 -2.35751 1470 ft 172 kts 50°
2026-05-04 17:14 53.52255 -2.34107 1444 ft 183 kts 52°
2026-05-04 17:14 53.53920 -2.30915 1531 ft 189 kts 34°
2026-05-04 17:15 53.55166 -2.30200 1304 ft 189 kts 355°
2026-05-04 17:15 53.57619 -2.31711 1284 ft 185 kts 340°
2026-05-04 17:16 53.60065 -2.30317 1024 ft 198 kts 26°
2026-05-04 17:16 53.62549 -2.28174 648 ft 6 kts 344°
2026-05-04 17:17 53.62543 -2.28199 762 ft 0 kts 299°
2026-05-04 17:17 53.63411 -2.30038 1892 ft 197 kts 251°
2026-05-04 17:18 53.62327 -2.30212 1578 ft 203 kts 132°
2026-05-04 17:18 53.60114 -2.29318 717 ft 156 kts 139°
2026-05-04 17:19 53.59242 -2.27236 332 ft 30 kts 125°
2026-05-04 17:19 53.60407 -2.28828 463 ft 216 kts 334°
2026-05-04 17:20 53.62503 -2.28970 873 ft 151 kts 271°
2026-05-04 17:20 53.60821 -2.29056 652 ft 173 kts 129°
2026-05-04 17:20 53.60336 -2.27208 772 ft 186 kts 112°
2026-05-04 17:21 53.61054 -2.25671 1328 ft 139 kts 239°
2026-05-04 17:21 53.60517 -2.28748 659 ft 203 kts 313°
2026-05-04 17:22 53.61447 -2.30183 1426 ft 170 kts 353°
2026-05-04 17:22 53.61885 -2.29540 455 ft 16 kts 320°